This demonstration page uses our WeatherBlox Daily Observations layout. Learn more.

Hourly Observations for September 11, 2019

Temp ( °F °C ) Dew Point ( °F °C ) Humidity (%) Winds ( mph kmh ) Pressure ( in mb ) Visibility ( mi km ) Precip ( " mm )
12:15 am 00:15 Clear 73 22.8 67 19.3 81 81 SSE 10 17 29.81 1010 10 16.0934 0 0
12:35 am 00:35 Clear 73 22.9 67 19.3 80 80 SSE 10 17 29.81 1010 10 16.0934 0 0
12:55 am 00:55 Clear 73 22.7 67 19.5 82 82 SSE 9 15 29.82 1010 10 16.0934 0 0
1:15 am 01:15 Clear 73 22.5 67 19.5 83 83 SSE 12 19 29.81 1009 10 16.0934 0 0
1:35 am 01:35 Clear 72 22.2 67 19.5 85 85 SSE 10 17 29.81 1009 10 16.0934 0 0
1:55 am 01:55 Clear 72 22.1 67 19.5 85 85 SSE 10 17 29.81 1009 10 16.0934 0 0
2:15 am 02:15 Clear 72 22.2 67 19.5 85 85 SSE 13 20 29.82 1010 10 16.0934 0 0
2:35 am 02:35 Clear 72 22.2 67 19.5 85 85 SSE 9 15 29.82 1010 10 16.0934 0 0
2:55 am 02:55 Clear 72 22.1 67 19.4 85 85 SSE 10 17 29.81 1009 10 16.0934 0 0
3:15 am 03:15 Clear 72 22.1 67 19.2 84 84 SSE 10 17 29.8 1009 10 16.0934 0 0
3:35 am 03:35 Clear 71 21.8 66 19.1 85 85 SSE 9 15 29.8 1009 10 16.0934 0 0
3:55 am 03:55 Clear 71 21.5 66 19 86 86 SSE 10 17 29.81 1009 10 16.0934 0 0
4:15 am 04:15 Clear 70 21.3 66 19.1 87 87 SSE 9 15 29.81 1009 10 16.0934 0 0
4:35 am 04:35 Clear 71 21.5 66 19 86 86 SSE 10 17 29.81 1009 10 16.0934 0 0
4:55 am 04:55 Clear 70 21.2 66 18.9 87 87 SSE 8 13 29.81 1009 10 16.0934 0 0
5:15 am 05:15 Clear 70 21 66 18.7 87 87 S 7 11 29.81 1009 10 16.0934 0 0
5:35 am 05:35 Clear 70 21 66 18.7 87 87 S 7 11 29.82 1010 10 16.0934 0 0
5:55 am 05:55 Clear 72 22 65 18.5 81 81 S 6 9 29.82 1010 10 16.0934 0 0
6:15 am 06:15 Clear 72 22.1 65 18.3 79 79 Calm 29.83 1010 10 16.0934 0 0
6:35 am 06:35 Clear 68 20.1 65 18.4 90 90 ENE 5 7 29.85 1011 10 16.0934 0 0
6:55 am 06:55 Clear 67 19.6 65 18.6 94 94 NE 8 13 29.86 1011 10 16.0934 0 0
7:15 am 07:15 Partly Cloudy 68 20 65 18.6 92 92 ENE 6 9 29.87 1011 10 16.0934 0 0
7:35 am 07:35 Partly Cloudy 68 19.8 65 18.6 93 93 ENE 8 13 29.87 1011 10 16.0934 0 0
7:55 am 07:55 Sunny 68 20.2 66 18.7 91 91 E 7 11 29.87 1011 10 16.0934 0 0
8:15 am 08:15 Partly Cloudy 70 20.9 66 19 89 89 E 7 11 29.87 1012 10 16.0934 0 0
8:35 am 08:35 Partly Cloudy 71 21.6 67 19.3 87 87 ESE 9 15 29.85 1011 10 16.0934 0 0
8:55 am 08:55 Sunny 73 22.5 67 19.2 82 82 ESE 9 15 29.85 1011 10 16.0934 0 0
9:15 am 09:15 Sunny 74 23.1 67 19.4 80 80 SE 10 17 29.84 1011 10 16.0934 0 0
9:35 am 09:35 Sunny 74 23.5 67 19.5 78 78 SSE 12 19 29.83 1010 10 16.0934 0 0
9:55 am 09:55 Sunny 76 24.5 67 19.2 72 72 SSE 12 19 29.82 1010 10 16.0934 0 0
10:15 am 10:15 Sunny 77 25 66 19.1 70 70 SSE 14 22 29.82 1010 10 16.0934 0 0
10:35 am 10:35 Sunny 77 25.2 66 19 69 69 S 14 22 29.82 1010 10 16.0934 0 0
10:55 am 10:55 Sunny 78 25.8 67 19.2 67 67 S 15 24 29.8 1009 10 16.0934 0 0
11:15 am 11:15 Sunny 80 26.6 67 19.2 64 64 S 13 20 29.79 1009 10 16.0934 0 0
11:35 am 11:35 Sunny 78 25.6 67 19.2 68 68 S 12 19 29.8 1009 10 16.0934 0 0
11:55 am 11:55 Sunny 80 26.8 68 20 66 66 S 12 19 29.79 1009 10 16.0934 0 0
12:15 pm 12:15 Sunny 81 27.4 68 19.9 64 64 S 14 22 29.78 1008 10 16.0934 0 0
12:35 pm 12:35 Sunny 83 28.1 68 20 61 61 S 16 26 29.77 1008 10 16.0934 0 0
12:55 pm 12:55 Partly Cloudy 84 28.9 68 20 59 59 S 18 30 29.76 1008 10 16.0934 0 0
1:15 pm 13:15 Sunny 85 29.5 68 19.8 56 56 S 17 28 29.75 1008 10 16.0934 0 0
1:35 pm 13:35 Sunny 86 29.9 68 20.2 56 56 S 17 28 29.74 1007 10 16.0934 0 0
1:55 pm 13:55 Sunny 87 30.5 68 20 53 53 S 20 31 29.73 1007 10 16.0934 0 0
2:15 pm 14:15 Sunny 88 31 68 19.8 51 51 S 22 35 29.73 1007 10 16.0934 0 0
2:35 pm 14:35 Sunny 89 31.7 68 19.9 50 50 S 18 30 29.72 1006 10 16.0934 0 0
2:55 pm 14:55 Partly Cloudy 89 31.8 68 19.9 49 49 S 20 31 29.7 1006 10 16.0934 0 0
3:15 pm 15:15 Sunny 89 31.8 68 20.2 50 50 SSE 17 28 29.69 1006 10 16.0934 0 0
3:35 pm 15:35 Sunny 90 32 68 19.9 49 49 SSE 24 39 29.68 1005 10 16.0934 0 0
3:55 pm 15:55 Partly Cloudy 89 31.9 67 19.4 48 48 S 21 33 29.68 1005 10 16.0934 0 0
4:15 pm 16:15 Partly Cloudy 89 31.9 67 19.2 47 47 S 20 31 29.68 1005 10 16.0934 0 0
4:35 pm 16:35 Sunny 89 31.7 67 19.3 48 48 S 20 31 29.69 1005 10 16.0934 0 0
4:55 pm 16:55 Sunny 89 31.7 66 18.8 46 46 S 20 31 29.68 1005 10 16.0934 0 0
5:15 pm 17:15 Sunny 89 31.5 66 18.7 47 47 S 17 28 29.67 1005 10 16.0934 0 0
5:35 pm 17:35 Sunny 88 31.3 66 18.8 47 47 S 21 33 29.67 1005 10 16.0934 0 0
5:50 pm 17:50 Sunny 88 31 65 18.3 47 47 S 17 28 29.67 1005 10 16.0934 0 0
6:15 pm 18:15 Sunny 87 30.5 66 19.1 51 51 S 13 20 29.66 1005 10 16.0934 0 0
6:35 pm 18:35 Sunny 86 30 66 19 52 52 SSE 17 28 29.67 1005 10 16.0934 0 0
6:55 pm 18:55 Sunny 85 29.3 66 18.8 53 53 SSE 16 26 29.66 1005 10 16.0934 0 0
7:15 pm 19:15 Sunny 84 28.7 65 18.6 54 54 SSE 14 22 29.67 1005 10 16.0934 0 0
7:35 pm 19:35 Sunny 82 28 65 18.5 56 56 SSE 14 22 29.67 1005 10 16.0934 0 0
7:55 pm 19:55 Clear 81 27.1 66 19 61 61 SSE 12 19 29.68 1005 10 16.0934 0 0
8:15 pm 20:15 Clear 80 26.5 67 19.2 64 64 SSE 13 20 29.69 1005 10 16.0934 0 0
8:35 pm 20:35 Clear 80 26.5 66 19.1 64 64 SSE 13 20 29.7 1006 10 16.0934 0 0
8:55 pm 20:55 Clear 79 26.1 66 19 65 65 SSE 12 19 29.7 1006 10 16.0934 0 0
9:15 pm 21:15 Clear 78 25.7 66 19.1 67 67 SSE 12 19 29.7 1006 10 16.0934 0 0
9:35 pm 21:35 Clear 78 25.7 66 19 67 67 SSE 13 20 29.7 1006 10 16.0934 0 0
9:55 pm 21:55 Clear 78 25.7 66 18.8 66 66 SSE 16 26 29.7 1006 10 16.0934 0 0
10:15 pm 22:15 Clear 78 25.7 65 18.5 65 65 S 20 31 29.68 1005 10 16.0934 0 0
10:35 pm 22:35 Clear 78 25.7 65 18.3 64 64 S 18 30 29.68 1005 10 16.0934 0 0
10:55 pm 22:55 Clear 77 25.2 65 18.3 66 66 SSE 14 22 29.7 1006 10 16.0934 0 0
11:15 pm 23:15 Clear 77 25 65 18.3 66 66 SSE 13 20 29.71 1006 10 16.0934 0 0
11:35 pm 23:35 Clear 76 24.5 65 18.3 68 68 SSE 14 22 29.7 1006 10 16.0934 0 0
11:55 pm 23:55 Clear 75 24 65 18.4 71 71 SSE 14 22 29.71 1006 10 16.0934 0 0

Powered by AerisWeather